Temp
5 5 5 4 4 4 4 3 3 3 2 2 2 1 1 1 1 2 2 2 3 4 4 4 4 5 5 6 7 8 8 9 10 11 12 14 13 12 14 10 11 15 15 16 16 17 15 14 15 16 14 14 13 14
5 5 4 4 4 3 3 3 2 2 2 1 1 1 1 1 1 2 2 2 2 3 4 6 5 6 7 6 5 6 7 8 9 10 12 13 11 9 8 11 12 13 11 9 14 13 11 12 10 13 13 13 15 15
4 4 4 4 3 3 3 3 2 1 1 1 1 1 1 1 1 1 1 1 2 3 4 5 5 5 6 7 7 5 6 7 7 9 8 9 10 8 6 8 12 13 11 12 14 14 12 9 11 12 12 13 14 14
4 5 4 4 3 3 3 3 2 1 1 1 1 1 1 1 1 1 0 1 2 2 3 4 4 5 6 6 7 7 7 6 6 6 7 9 10 10 11 11 11 12 9 9 12 13 13 13 12 13 13 13 13 13
4 4 4 4 3 3 3 2 2 2 1 1 1 1 1 1 1 1 0 1 1 2 2 4 4 5 6 6 7 7 7 7 5 6 7 8 9 10 9 10 10 11 12 11 12 11 10 11 10 10 11 12 12 13
4 4 4 4 3 3 2 2 2 2 1 1 1 1 1 0 1 0 0 0 1 2 2 3 4 4 5 6 6 6 7 6 6 5 6 7 8 8 9 10 11 11 11 11 10 10 9 10 10 11 11 11 11 11
3 3 4 4 3 3 2 2 2 2 1 1 1 0 1 0 0 0 -0 0 1 1 2 3 4 4 5 5 6 6 6 5 5 5 6 6 8 7 7 8 9 9 10 9 9 9 9 9 10 10 9 10 10 11
3 3 3 3 3 2 2 2 2 2 1 1 0 0 0 0 0 0 0 0 0 1 1 2 4 5 5 5 5 4 4 4 4 5 6 7 7 8 7 8 8 8 8 8 8 9 9 9 9 9 9 9 9 9
3 2 3 3 3 2 2 2 2 2 2 1 0 0 0 0 1 1 0 -0 -0 0 1 2 4 5 4 5 6 4 5 5 5 6 6 7 8 8 8 7 8 8 8 8 8 8 8 8 8 9 9 8 8 9
3 2 2 2 2 2 2 2 2 2 1 0 -0 0 -0 -0 0 0 0 -0 0 -0 0 1 2 4 5 6 6 5 5 6 7 7 7 7 8 8 8 8 7 7 7 7 7 7 8 8 8 8 9 8 8 8
2 2 2 2 2 2 2 2 1 1 1 -0 -1 -0 0 -0 0 -1 -1 -1 -0 -0 1 3 3 2 4 5 5 6 6 7 8 8 8 8 8 9 8 8 8 8 8 8 8 9 9 8 8 8 9 9 9 8
2 2 1 1 2 1 1 1 1 1 -0 -1 -1 -0 -1 -1 -1 -1 -1 -1 0 1 1 3 4 4 4 4 4 5 6 7 8 9 9 9 10 9 9 8 8 8 8 9 9 9 9 9 9 9 8 8 9 9
2 1 0 1 1 1 1 1 0 -1 -2 -1 -1 -1 -1 -1 -1 -1 -1 -0 0 2 2 2 3 2 2 3 4 5 6 7 8 9 9 10 9 9 9 8 8 8 8 9 9 9 9 9 9 9 9 8 9 9
1 0 -0 1 1 0 0 0 -1 -2 -2 -2 -2 -2 -1 -1 -1 1 1 0 2 2 1 3 2 2 2 3 4 5 6 8 8 8 9 9 8 8 8 8 8 8 8 8 9 9 9 9 9 9 9 9 9 9
1 0 -0 0 0 0 0 -0 -2 -2 -2 -2 -2 -1 -1 -0 -0 0 -0 1 1 1 2 2 2 2 3 4 5 6 7 7 7 8 9 9 8 8 8 8 8 8 8 8 9 9 9 9 9 9 9 9 9 9
0 0 0 -0 -1 -0 -1 -2 -3 -2 -2 -2 -2 -2 -0 -1 -1 -0 0 1 1 1 1 1 2 2 3 4 6 6 7 8 8 9 8 8 8 8 8 8 7 8 8 8 9 9 9 9 9 9 9 9 9 9
-0 -0 -1 -1 -1 -1 -2 -3 -2 -2 -2 -2 -2 -2 -1 -1 -0 -0 -0 0 1 0 0 0 1 1 2 3 5 7 7 8 8 7 7 8 8 8 7 7 7 7 7 7 8 8 8 9 9 9 9 9 8 9
-1 -1 -1 -1 -2 -2 -3 -4 -3 -3 -3 -2 -2 -2 -2 -2 -1 -0 -1 -1 -0 -0 0 -0 0 1 2 3 5 6 7 6 6 5 7 7 7 7 7 7 6 6 7 7 7 7 8 8 8 8 8 9 8 8
-2 -2 -2 -3 -3 -3 -4 -4 -4 -4 -3 -2 -2 -2 -2 -2 -1 -1 -1 -1 -1 -1 -1 -1 -0 0 1 2 4 4 5 5 5 6 6 6 6 6 6 6 6 6 6 7 7 7 7 8 8 7 7 8 8 8
-3 -3 -3 -3 -3 -4 -5 -5 -4 -4 -3 -3 -3 -2 -2 -2 -2 -1 -1 -1 -1 -1 -1 -1 -0 0 1 2 3 4 2 4 4 4 6 5 5 5 5 5 5 5 5 6 6 6 6 7 7 7 8 7 8 7
-4 -3 -3 -3 -4 -5 -5 -4 -4 -4 -4 -3 -3 -2 -3 -2 -1 -1 -1 -1 -1 -1 -1 0 1 1 1 1 2 2 2 4 4 4 4 4 4 4 4 4 4 4 4 4 4 5 6 5 4 7 7 7 8 8
-3 -3 -3 -4 -4 -4 -5 -5 -5 -4 -4 -4 -3 -3 -2 -2 -2 -2 -2 -2 -2 -0 0 1 1 1 1 2 2 3 2 2 4 3 3 3 3 3 3 3 4 4 4 3 4 3 4 4 6 7 7 7 7 7
-3 -4 -4 -4 -5 -4 -4 -5 -5 -5 -5 -4 -4 -4 -3 -2 -3 -3 -2 -2 -2 -2 -2 -2 1 1 1 1 1 2 1 1 2 3 3 3 3 3 3 3 3 3 3 3 3 4 4 4 5 5 6 6 6 6
-4 -5 -5 -5 -5 -5 -5 -6 -5 -5 -5 -5 -4 -4 -3 -3 -3 -3 -3 -2 -2 -1 -1 -2 -2 -1 -0 1 1 1 1 1 1 2 2 2 2 3 3 2 2 2 2 3 3 3 3 4 4 5 5 5 5 6
-5 -5 -5 -5 -5 -6 -6 -6 -5 -6 -5 -5 -4 -4 -3 -3 -3 -3 -3 -1 -1 -1 -1 -1 -2 -2 -1 -1 1 1 1 1 1 2 2 2 2 2 2 2 2 3 2 2 2 2 3 4 4 4 4 4 5 4
-5 -5 -4 -6 -6 -5 -5 -4 -4 -4 -3 -3 -3 -3 -3 -3 -3 -2 -1 -1 -1 -1 -1 -1 -1 -1 -1 -1 0 1 1 1 1 2 1 2 2 2 2 2 2 3 2 2 2 2 3 3 4 4 4 4 4 4
-4 -5 -5 -4 -5 -5 -5 -4 -4 -3 -4 -4 -3 -3 -3 -3 -2 -1 -1 -2 -2 -1 -2 -2 -2 -1 -1 -1 -0 -0 -0 0 0 0 0 1 1 1 2 2 2 2 2 2 1 2 2 2 3 4 4 4 4 4
-4 -5 -6 -5 -6 -6 -5 -5 -4 -4 -4 -3 -3 -3 -3 -2 -2 -2 -2 -1 -1 -1 -1 -1 -2 -2 -1 -1 -1 -1 -1 -0 -0 1 2 1 1 2 1 1 1 1 2 2 3 1 2 2 3 4 4 3 3 3
-3 -4 -5 -5 -6 -5 -6 -5 -5 -4 -4 -3 -3 -3 -3 -3 -3 -3 -3 -2 -1 -1 -1 -1 -2 -2 -2 -1 -2 -1 -1 -1 -1 0 2 0 1 1 1 1 1 1 1 2 3 3 4 3 4 4 4 4 4 3
-2 -4 -4 -3 -5 -6 -5 -5 -5 -4 -4 -4 -4 -4 -3 -3 -3 -4 -4 -3 -2 -2 -2 -2 -2 -3 -2 -2 -2 -2 -1 -1 -1 0 -0 0 1 2 2 2 2 1 2 1 1 3 3 3 3 4 4 4 4 4
-5 -4 -5 -5 -4 -5 -6 -6 -6 -5 -5 -5 -5 -4 -4 -4 -4 -4 -4 -4 -4 -3 -3 -3 -3 -3 -3 -3 -2 -2 -2 -1 -1 -1 -0 0 1 1 1 1 2 1 2 1 1 1 2 3 3 4 4 4 4 4
-5 -5 -5 -4 -4 -5 -5 -4 -4 -4 -4 -4 -4 -4 -3 -4 -4 -4 -4 -4 -4 -4 -3 -2 -2 -2 -3 -3 -3 -2 -1 -1 -1 -1 0 0 0 -0 0 0 1 1 1 2 1 2 2 2 3 3 4 4 4 4
-3 -3 -4 -4 -4 -4 -4 -4 -4 -4 -4 -3 -4 -4 -4 -4 -3 -2 -3 -4 -4 -4 -3 -3 -3 -3 -2 -3 -3 -2 -1 0 -0 -1 1 1 1 0 0 0 1 1 1 1 2 1 3 2 3 2 3 4 4 4
Height
3097 3094 3091 3089 3087 3084 3082 3080 3078 3077 3076 3076 3077 3077 3079 3081 3083 3085 3087 3087 3089 3090 3091 3091 3095 3097 3101 3104 3105 3105 3107 3106 3107 3107 3103 3094 3096 3096 3092 3101 3095 3104 3101 3101 3102 3101 3109 3104 3114 3115 3111 3112 3113 3115
3093 3090 3087 3085 3083 3081 3079 3077 3076 3075 3074 3074 3074 3075 3076 3078 3079 3081 3083 3084 3084 3085 3088 3086 3088 3090 3092 3095 3097 3100 3103 3101 3103 3102 3102 3097 3093 3091 3095 3092 3098 3104 3100 3102 3098 3101 3098 3103 3099 3094 3109 3109 3109 3111
3088 3085 3083 3081 3079 3077 3076 3075 3073 3073 3072 3072 3072 3072 3073 3075 3076 3077 3078 3080 3081 3081 3084 3084 3085 3086 3086 3089 3092 3095 3098 3101 3100 3097 3095 3094 3088 3091 3092 3097 3097 3097 3102 3099 3100 3102 3097 3096 3103 3106 3106 3106 3106 3108
3084 3081 3079 3077 3075 3074 3072 3071 3070 3069 3070 3070 3069 3069 3070 3072 3072 3073 3074 3076 3078 3079 3079 3085 3082 3081 3081 3084 3085 3088 3091 3094 3094 3094 3095 3096 3095 3087 3094 3090 3091 3091 3088 3087 3100 3100 3103 3098 3099 3101 3103 3103 3102 3104
3079 3076 3074 3072 3071 3070 3068 3067 3066 3065 3065 3066 3066 3067 3067 3068 3069 3069 3071 3073 3074 3078 3074 3075 3075 3077 3077 3078 3080 3083 3085 3088 3090 3091 3092 3094 3097 3097 3092 3091 3090 3093 3093 3096 3096 3093 3095 3096 3096 3098 3098 3098 3098 3099
3075 3072 3069 3068 3067 3065 3064 3063 3062 3061 3061 3061 3062 3063 3064 3064 3065 3066 3069 3070 3071 3072 3072 3074 3074 3072 3073 3074 3076 3078 3080 3083 3085 3087 3088 3088 3091 3092 3090 3088 3088 3088 3088 3089 3090 3092 3090 3088 3089 3091 3094 3095 3096 3096
3069 3067 3065 3063 3062 3061 3060 3058 3058 3058 3057 3057 3058 3060 3061 3061 3062 3064 3067 3068 3069 3070 3070 3070 3071 3069 3070 3070 3072 3073 3075 3077 3081 3082 3083 3085 3088 3086 3085 3083 3086 3087 3087 3087 3087 3088 3087 3087 3088 3092 3091 3092 3091 3093
3063 3061 3059 3057 3057 3056 3055 3054 3054 3053 3054 3054 3055 3057 3058 3058 3059 3060 3062 3064 3066 3067 3068 3068 3070 3071 3067 3070 3072 3071 3073 3075 3076 3077 3080 3081 3084 3083 3080 3081 3082 3083 3083 3083 3083 3084 3084 3085 3086 3086 3086 3085 3086 3087
3057 3055 3053 3052 3050 3050 3050 3049 3049 3049 3050 3051 3052 3053 3054 3055 3056 3058 3059 3060 3062 3067 3063 3063 3067 3067 3066 3069 3071 3070 3071 3072 3073 3072 3073 3078 3075 3072 3075 3076 3076 3077 3077 3077 3078 3078 3078 3079 3079 3080 3080 3080 3080 3082
3050 3049 3047 3046 3045 3044 3044 3043 3043 3044 3044 3046 3048 3050 3050 3052 3053 3055 3054 3055 3056 3056 3056 3054 3062 3065 3068 3068 3068 3070 3068 3069 3067 3067 3069 3067 3066 3069 3069 3070 3070 3070 3069 3069 3069 3070 3071 3072 3074 3075 3074 3076 3077 3078
3043 3042 3041 3040 3039 3038 3038 3038 3038 3039 3040 3042 3044 3046 3047 3048 3049 3049 3049 3049 3049 3048 3047 3047 3055 3058 3063 3065 3064 3064 3064 3063 3061 3063 3061 3060 3060 3060 3062 3065 3063 3063 3063 3063 3062 3063 3064 3066 3070 3072 3071 3072 3073 3073
3035 3034 3034 3034 3033 3033 3033 3033 3033 3035 3037 3040 3042 3042 3043 3044 3044 3045 3043 3043 3042 3042 3041 3044 3048 3052 3056 3060 3060 3059 3057 3058 3055 3055 3055 3054 3055 3053 3056 3058 3058 3059 3059 3058 3057 3057 3058 3059 3063 3065 3068 3069 3069 3068
3027 3027 3027 3027 3026 3027 3027 3027 3028 3030 3033 3036 3037 3037 3038 3039 3037 3035 3034 3034 3035 3035 3038 3040 3045 3047 3050 3052 3055 3056 3052 3051 3052 3050 3049 3049 3048 3050 3052 3054 3055 3055 3054 3052 3051 3051 3052 3055 3059 3061 3064 3065 3066 3066
3019 3018 3019 3019 3019 3019 3021 3021 3023 3026 3029 3031 3032 3031 3030 3027 3026 3025 3026 3031 3033 3034 3035 3036 3039 3043 3044 3046 3049 3048 3047 3047 3044 3043 3043 3044 3044 3047 3049 3051 3051 3052 3051 3051 3050 3050 3051 3053 3056 3059 3061 3062 3063 3064
3011 3011 3011 3011 3012 3012 3014 3015 3018 3021 3024 3025 3025 3022 3018 3020 3022 3024 3026 3028 3027 3028 3028 3031 3034 3034 3038 3040 3040 3041 3039 3036 3037 3037 3038 3036 3039 3043 3045 3047 3048 3049 3049 3049 3049 3048 3049 3050 3052 3055 3058 3059 3060 3060
3003 3004 3004 3004 3004 3005 3007 3009 3013 3016 3016 3016 3013 3012 3014 3016 3018 3021 3022 3023 3021 3022 3024 3025 3024 3022 3024 3029 3029 3029 3030 3029 3032 3033 3030 3032 3035 3038 3040 3042 3044 3045 3046 3046 3046 3046 3046 3047 3049 3050 3053 3055 3056 3057
2994 2996 2997 2997 2998 2999 3001 3004 3007 3007 3007 3003 3001 3006 3011 3013 3014 3015 3015 3016 3018 3020 3020 3022 3019 3019 3020 3017 3020 3023 3024 3027 3028 3027 3026 3029 3032 3034 3036 3038 3040 3041 3042 3043 3043 3044 3044 3044 3045 3047 3049 3050 3052 3053
2986 2988 2989 2990 2991 2992 2994 2996 2998 2996 2993 2993 2994 3000 3005 3007 3009 3009 3009 3010 3012 3013 3014 3014 3013 3013 3013 3012 3015 3019 3020 3020 3020 3020 3022 3025 3028 3030 3032 3034 3036 3038 3039 3039 3040 3041 3041 3041 3042 3043 3045 3046 3048 3049
2978 2981 2982 2984 2985 2986 2988 2989 2990 2986 2986 2987 2988 2994 3000 3001 3002 3001 3002 3003 3004 3006 3006 3006 3005 3003 3003 3007 3006 3007 3008 3012 3013 3014 3017 3020 3023 3026 3028 3030 3032 3033 3034 3034 3035 3035 3036 3036 3037 3038 3040 3042 3044 3044
2972 2975 2977 2979 2980 2980 2982 2982 2981 2980 2979 2981 2983 2987 2991 2993 2994 2993 2994 2995 2996 2996 2996 2994 2993 2995 3000 3000 2999 3000 2991 2987 3009 3005 3012 3016 3019 3022 3024 3026 3027 3028 3029 3029 3029 3029 3029 3030 3031 3032 3034 3036 3039 3040
2968 2970 2973 2974 2975 2975 2976 2974 2974 2974 2974 2974 2978 2981 2982 2983 2983 2984 2986 2987 2986 2984 2982 2984 2988 2990 2991 2991 2993 2988 2991 2985 3001 3002 3007 3012 3015 3020 3020 3022 3023 3025 3026 3026 3025 3023 3023 3024 3024 3025 3027 3030 3032 3033
2964 2966 2967 2968 2969 2969 2969 2968 2969 2969 2970 2970 2972 2973 2973 2973 2974 2976 2979 2976 2973 2973 2976 2978 2981 2982 2982 2982 2985 2987 2988 2975 2987 2993 3002 3006 3012 3015 3017 3020 3021 3022 3023 3022 3019 3021 3019 3019 3017 3019 3019 3021 3022 3024
2960 2962 2963 2964 2965 2965 2964 2963 2964 2964 2964 2963 2965 2965 2964 2964 2966 2969 2967 2965 2966 2968 2969 2970 2972 2973 2974 2977 2977 2979 2981 2975 2989 2994 2999 3005 3009 3011 3013 3014 3015 3015 3015 3016 3014 3014 3014 3013 3012 3013 3012 3013 3014 3016
2955 2957 2958 2959 2959 2958 2958 2958 2957 2958 2958 2959 2959 2959 2960 2960 2961 2960 2958 2960 2961 2964 2963 2963 2965 2965 2967 2969 2970 2973 2977 2981 2986 2992 2996 3001 3004 3007 3008 3008 3009 3009 3009 3009 3008 3008 3009 3008 3007 3007 3007 3008 3009 3011
2953 2954 2954 2951 2952 2953 2951 2951 2952 2953 2952 2953 2955 2955 2956 2955 2955 2954 2952 2953 2955 2956 2956 2957 2957 2958 2959 2962 2967 2971 2976 2979 2984 2989 2993 2997 2999 3000 3001 3002 3003 3004 3004 3004 3004 3003 3004 3004 3004 3003 3002 3003 3005 3007
2946 2947 2946 2945 2946 2946 2947 2949 2950 2951 2951 2952 2951 2951 2952 2951 2950 2946 2945 2945 2946 2947 2949 2950 2951 2953 2954 2957 2960 2965 2969 2974 2979 2983 2987 2991 2992 2994 2995 2996 2998 2999 3000 2999 2998 2998 2999 3000 3000 3001 3000 2999 3001 3003
2940 2940 2939 2940 2943 2944 2943 2944 2945 2946 2946 2945 2946 2948 2948 2946 2942 2941 2940 2939 2940 2941 2941 2941 2943 2947 2950 2952 2956 2960 2964 2966 2971 2977 2979 2983 2986 2987 2989 2989 2991 2992 2994 2993 2992 2993 2995 2997 2997 2998 2998 2998 2995 3000
2933 2935 2936 2938 2936 2936 2938 2939 2940 2940 2939 2940 2941 2940 2940 2939 2939 2937 2934 2934 2934 2933 2934 2935 2938 2942 2945 2946 2950 2954 2959 2961 2964 2967 2971 2974 2976 2978 2981 2982 2983 2982 2983 2984 2985 2988 2991 2993 2994 2994 2995 2996 2996 2997
2927 2928 2929 2929 2932 2932 2930 2931 2931 2932 2934 2934 2933 2933 2934 2934 2933 2931 2931 2929 2929 2930 2931 2932 2934 2937 2940 2943 2945 2948 2952 2955 2959 2961 2963 2967 2971 2974 2976 2977 2980 2979 2981 2980 2979 2982 2985 2988 2991 2992 2993 2994 2996 2999
2922 2922 2922 2922 2922 2922 2923 2925 2925 2926 2927 2927 2927 2926 2926 2926 2927 2926 2926 2925 2926 2926 2928 2930 2932 2935 2939 2943 2945 2947 2948 2951 2954 2959 2960 2963 2968 2974 2976 2976 2977 2978 2980 2980 2978 2979 2982 2986 2988 2990 2992 2993 2995 2996
2918 2917 2917 2916 2916 2917 2917 2917 2916 2915 2916 2917 2917 2917 2917 2918 2918 2919 2920 2920 2921 2923 2925 2926 2929 2930 2932 2935 2939 2942 2944 2946 2949 2950 2952 2957 2963 2966 2967 2970 2974 2975 2976 2976 2978 2979 2980 2983 2986 2988 2990 2992 2993 2994
2913 2911 2910 2909 2908 2908 2907 2907 2906 2904 2905 2905 2904 2906 2905 2905 2904 2908 2910 2912 2913 2914 2915 2918 2921 2923 2927 2930 2931 2934 2936 2941 2945 2947 2947 2952 2954 2958 2963 2966 2969 2972 2973 2973 2976 2978 2980 2982 2985 2987 2988 2989 2990 2991
2907 2907 2905 2904 2903 2902 2901 2900 2898 2897 2896 2895 2894 2894 2894 2893 2890 2894 2896 2897 2901 2903 2906 2910 2912 2915 2918 2921 2925 2928 2929 2933 2936 2938 2941 2944 2948 2951 2955 2959 2964 2969 2969 2971 2972 2976 2977 2981 2983 2984 2986 2988 2989 2991
Wind_Speed
21 20 19 18 16 15 14 12 12 11 12 12 11 11 15 14 15 15 17 18 19 21 22 17 19 19 11 10 10 5 11 14 14 19 26 28 16 18 23 19 9 21 21 24 23 11 13 5 9 9 6 2 1 3
22 21 18 17 16 14 14 13 11 10 9 9 10 11 13 12 15 15 20 19 19 20 16 20 20 24 25 22 14 13 9 5 10 13 24 27 20 6 12 31 33 25 17 26 10 4 10 7 15 7 2 4 14 14
22 20 18 16 15 14 13 13 13 10 9 9 12 15 13 13 14 16 21 18 18 20 17 18 16 13 23 23 24 19 13 14 12 23 18 14 14 23 12 24 19 15 19 10 12 9 13 6 9 9 9 14 16 17
22 20 17 17 15 14 14 14 13 13 13 14 13 10 14 16 12 12 17 17 17 17 15 5 9 14 19 20 25 25 24 15 16 15 15 15 16 15 20 18 13 10 13 8 16 17 19 15 13 20 25 26 26 24
22 20 17 17 15 14 14 14 14 13 13 13 12 14 10 12 13 12 19 15 16 15 13 13 17 16 15 20 22 23 26 27 19 17 17 17 15 20 21 20 21 20 21 16 19 12 12 11 6 9 17 21 27 31
23 20 18 17 16 15 16 15 14 14 13 15 15 12 11 9 14 18 14 16 15 15 17 12 11 13 14 18 17 20 22 23 25 20 21 21 18 16 16 20 20 18 19 18 19 18 18 20 21 23 23 20 21 15
22 21 19 18 17 16 16 15 14 14 12 10 10 14 12 9 13 18 19 12 10 12 14 10 6 10 15 14 16 18 20 20 19 21 24 21 18 21 22 27 22 20 18 17 19 18 21 20 25 22 20 19 25 23
23 23 20 18 18 17 15 15 15 15 13 13 13 12 11 12 13 19 19 20 13 9 11 6 5 8 10 8 10 12 14 16 18 20 18 20 21 25 27 23 21 21 21 21 21 20 21 20 19 20 16 18 21 24
25 24 20 19 18 16 15 16 15 14 14 14 13 15 14 16 15 14 16 22 20 20 8 13 8 1 7 9 9 10 12 16 14 19 23 20 22 30 24 19 17 18 18 17 17 16 17 17 17 17 18 19 17 15
23 22 20 19 18 16 17 16 15 14 14 15 16 17 15 15 13 12 17 20 26 27 29 29 14 12 4 8 14 10 13 15 14 17 14 27 28 23 24 23 22 19 21 22 23 23 21 20 17 16 16 13 14 14
25 24 21 19 18 17 15 14 14 14 16 16 17 17 17 15 13 15 10 11 14 16 28 34 28 19 12 10 12 16 13 14 17 18 18 19 23 22 19 21 27 21 16 15 18 19 23 22 15 15 15 14 15 15
25 25 22 19 19 17 14 13 14 14 15 15 16 17 14 15 10 10 10 10 10 17 18 10 18 21 24 15 11 9 18 9 11 13 23 22 18 16 15 17 15 12 12 16 19 21 21 25 23 17 14 12 11 11
27 24 23 20 18 17 15 14 14 14 14 16 17 15 11 12 14 10 13 12 14 13 11 16 14 12 18 23 19 11 11 22 13 20 20 19 16 18 15 15 7 6 8 8 10 12 16 19 20 19 15 13 11 11
27 25 22 21 17 17 17 15 15 14 19 21 16 14 13 10 11 26 22 14 14 11 10 15 20 13 14 14 14 14 21 15 24 22 23 21 21 17 14 15 8 6 7 5 7 7 9 16 20 20 17 14 12 11
24 24 23 21 18 17 17 16 20 20 23 22 13 11 19 17 11 7 10 19 19 21 14 17 23 22 17 13 16 11 9 12 17 23 23 21 22 19 14 18 12 9 10 8 6 10 12 12 19 24 20 18 16 15
24 23 20 20 18 16 17 19 22 24 28 28 20 16 14 13 17 17 15 14 21 19 23 22 17 10 12 12 16 21 17 13 15 11 16 22 20 19 15 18 16 11 10 8 9 9 10 13 14 19 24 22 19 17
23 22 20 21 20 17 18 25 25 31 27 35 41 37 18 15 12 16 23 24 22 23 28 22 13 14 11 9 23 23 23 18 11 15 19 21 19 16 15 13 13 11 9 8 7 7 12 13 14 16 18 20 20 16
23 20 21 21 20 18 18 26 33 29 37 37 36 35 26 24 22 23 23 19 23 24 25 29 22 17 12 10 16 25 16 19 18 14 14 16 19 19 16 14 13 11 11 11 11 10 10 13 15 14 17 20 20 18
19 18 18 18 17 17 19 23 35 34 33 35 40 38 25 23 24 28 27 25 24 26 25 24 20 33 28 26 15 19 25 21 20 18 16 17 18 16 13 12 13 15 16 16 15 17 18 16 18 18 17 23 22 20
16 16 16 14 12 15 20 18 23 34 39 38 37 30 26 23 24 28 27 28 25 29 28 32 34 34 24 33 39 27 34 18 20 18 19 17 15 13 12 12 12 11 8 11 11 15 17 19 18 23 24 25 23 23
17 17 16 15 12 15 22 17 16 16 18 27 30 26 25 26 27 28 28 27 31 35 36 36 31 29 32 29 31 41 16 11 12 13 14 14 14 10 10 10 9 6 6 8 8 13 13 14 16 15 22 27 24 28
16 15 16 16 15 14 18 24 24 25 23 22 19 20 23 25 25 27 25 30 37 37 33 29 25 23 30 29 27 36 23 12 10 20 20 16 11 10 8 7 9 8 10 10 9 8 9 15 18 18 22 25 24 25
16 16 16 15 14 12 11 13 20 23 21 19 19 20 23 24 22 19 25 30 33 30 26 25 24 23 26 25 32 26 31 9 20 19 19 17 12 13 11 11 11 12 12 11 13 14 13 16 15 17 15 17 19 24
15 16 15 11 13 11 13 12 14 17 22 20 17 14 12 14 11 17 22 22 22 21 21 22 26 23 25 27 34 34 32 23 24 25 15 16 15 14 14 13 14 14 16 16 15 17 16 16 16 14 12 19 19 21
14 12 10 15 13 14 16 18 15 14 13 10 14 14 8 8 14 20 25 20 18 21 22 22 22 24 25 28 28 27 27 24 23 24 19 17 18 17 16 16 14 14 15 15 14 16 16 16 13 14 11 14 20 21
13 10 10 9 10 15 11 7 11 15 16 15 13 10 11 15 18 18 15 11 16 20 19 22 21 19 23 26 26 32 33 27 21 22 22 19 19 16 16 15 13 13 12 14 13 15 17 17 13 13 11 11 16 22
13 9 12 16 12 11 11 12 12 12 13 14 13 14 11 10 12 12 9 11 11 12 17 19 18 18 17 21 23 23 24 26 24 24 21 20 19 18 15 15 15 13 12 15 16 15 14 15 14 15 13 12 17 24
15 12 14 14 15 15 17 16 13 15 16 16 15 17 12 10 7 8 13 15 15 15 14 17 18 15 13 16 19 22 26 26 26 29 27 27 26 21 16 14 13 19 22 20 14 11 14 14 14 11 11 10 13 22
19 17 15 17 17 16 18 19 20 17 14 13 16 20 18 16 14 15 12 12 12 13 12 13 19 19 16 16 14 14 15 17 17 19 21 18 13 13 13 14 13 11 8 13 14 18 20 16 14 9 8 11 12 13
11 12 15 15 17 20 19 15 12 12 14 17 19 20 21 21 19 15 13 14 14 14 14 14 11 10 11 12 12 12 12 13 15 15 15 15 11 8 12 13 11 9 9 11 11 17 19 18 11 10 11 9 10 13
13 13 14 16 17 16 15 18 20 19 19 21 20 22 22 19 19 20 19 18 19 21 19 17 15 16 16 15 15 15 15 15 14 16 24 22 17 15 18 13 12 11 12 12 12 14 16 17 15 12 10 9 8 10
15 17 18 19 19 19 20 22 23 26 26 27 28 27 28 28 28 24 22 23 24 25 26 27 27 25 20 18 17 18 20 19 16 15 22 26 27 20 18 18 11 10 10 9 12 15 16 13 12 12 12 9 9 10
12 8 7 11 9 6 4 8 11 12 13 17 20 21 24 29 34 28 28 29 29 29 28 26 25 25 25 24 23 21 23 24 25 27 24 26 29 27 24 21 16 12 13 11 10 15 15 14 12 14 13 13 14 11
Wind_Direction
321 318 315 316 319 319 316 310 310 292 274 263 256 250 216 226 226 231 232 232 234 236 218 237 224 223 236 233 218 260 257 244 222 230 236 248 250 273 232 264 258 232 216 221 239 217 240 104 240 227 192 144 261 270
319 315 312 312 312 311 311 306 304 308 272 265 245 251 235 231 231 240 234 235 238 241 225 244 242 236 231 208 227 232 238 236 224 228 231 252 278 259 254 259 233 226 286 282 195 216 122 209 308 95 282 293 263 268
320 314 306 306 304 301 306 304 290 298 275 264 281 247 251 261 265 242 233 235 243 249 248 256 251 258 237 230 230 238 239 244 260 234 250 269 316 243 279 239 224 256 210 232 250 260 338 285 237 292 294 277 269 269
319 313 306 303 301 299 301 303 295 269 274 277 280 263 237 252 266 258 221 233 241 253 257 236 253 262 242 232 230 229 217 225 234 251 254 256 262 280 268 294 293 289 319 203 273 290 275 278 273 268 274 278 276 274
314 311 304 300 297 294 295 296 298 280 263 265 275 255 257 260 257 244 224 236 236 242 254 227 236 254 242 230 232 231 228 228 240 247 251 250 251 263 271 270 266 267 284 274 278 294 280 245 261 260 263 268 278 280
310 309 300 299 295 291 291 288 288 284 264 267 262 250 241 248 240 221 228 239 230 248 265 269 232 254 239 233 234 235 234 233 235 237 245 246 241 270 260 264 269 271 267 276 273 267 273 260 267 267 270 276 272 278
304 307 300 297 293 293 289 281 283 282 268 262 247 240 234 255 246 232 221 240 241 243 264 289 284 264 240 239 238 237 233 228 231 235 238 242 244 253 261 258 259 261 266 264 261 266 271 272 270 271 271 262 263 271
296 300 296 292 292 290 284 282 280 275 264 249 253 236 241 243 240 232 237 226 233 252 247 246 238 254 252 218 221 216 217 218 228 228 237 239 240 243 253 258 259 262 262 256 262 260 261 265 262 261 268 264 266 271
297 296 293 291 290 285 277 281 275 270 262 248 242 245 235 243 247 247 241 230 234 239 241 222 199 336 228 202 218 226 207 225 232 239 230 229 237 233 248 262 257 252 258 262 254 248 249 251 263 260 264 261 253 250
293 291 291 292 289 283 280 274 267 264 249 236 230 236 249 254 251 247 242 235 234 239 238 236 212 231 227 217 226 220 224 222 237 247 238 230 236 244 248 254 267 263 251 248 249 252 253 255 255 261 260 239 245 250
283 290 293 290 288 286 277 261 260 257 245 231 225 234 242 250 237 234 223 223 221 231 245 243 229 224 215 232 239 220 232 229 238 238 229 231 243 253 248 242 249 253 252 249 255 251 245 237 237 251 247 246 249 255
280 281 287 288 289 283 270 259 260 254 240 230 225 235 242 244 230 211 212 213 220 229 235 243 238 239 221 227 231 235 218 236 231 248 222 236 240 237 232 251 246 232 259 269 260 254 245 237 231 234 233 244 252 250
271 280 284 281 281 273 263 253 249 235 223 220 220 230 231 220 218 214 208 203 213 227 229 218 206 212 204 212 218 233 238 233 238 233 234 242 227 233 237 206 208 246 288 281 268 246 236 233 222 219 216 227 238 263
266 276 280 277 270 264 261 247 224 211 207 209 212 212 212 214 220 224 227 237 230 232 227 209 198 210 210 205 203 227 232 238 235 239 240 229 227 236 234 218 248 272 270 317 253 235 234 224 218 217 220 234 242 250
269 275 275 267 265 262 248 230 204 209 211 209 209 220 229 224 225 246 228 220 229 226 205 198 207 202 201 210 206 214 223 212 231 239 239 235 226 232 233 227 256 248 254 274 263 238 228 231 227 228 226 236 245 253
264 271 268 266 264 254 236 210 198 211 218 218 222 219 231 226 228 231 236 229 237 226 214 218 209 231 199 204 210 211 219 218 230 233 207 217 226 229 239 239 238 249 251 252 247 242 233 236 236 228 230 238 251 251
260 264 268 269 261 244 230 201 208 212 224 229 232 231 221 221 229 229 230 236 247 237 238 233 224 222 205 231 215 219 228 229 249 205 221 233 236 236 220 225 258 233 224 239 254 263 241 239 237 237 237 235 241 243
254 260 265 260 248 237 233 211 214 225 229 229 240 243 243 243 249 249 249 251 247 243 243 239 234 216 209 218 221 218 231 213 210 204 229 220 217 221 231 225 217 236 250 260 269 263 263 250 246 245 232 226 223 237
254 258 252 244 240 238 229 220 219 234 240 242 242 244 237 246 239 250 255 258 259 262 262 246 245 238 225 223 222 209 203 215 208 220 223 217 213 212 228 254 271 274 271 270 267 254 252 251 243 235 231 226 229 236
247 237 226 231 241 226 213 228 231 235 245 249 249 253 254 247 248 252 256 250 253 263 257 245 237 239 240 235 230 241 227 213 198 191 205 217 230 240 245 252 255 266 275 266 272 254 250 247 251 236 233 235 234 235
217 218 230 230 238 228 219 225 223 240 252 249 249 253 246 253 250 248 252 254 250 250 254 255 261 264 252 253 243 243 222 148 182 196 200 200 209 205 234 250 255 250 264 271 264 262 258 248 239 243 231 230 234 228
220 225 230 230 231 237 238 233 239 243 245 253 253 240 246 249 251 248 243 242 247 252 258 262 255 255 256 257 247 238 235 172 192 177 192 183 199 228 241 229 247 244 248 265 267 262 257 260 258 255 251 242 239 233
228 229 229 230 227 234 256 243 239 241 238 254 256 251 250 250 247 247 241 245 253 256 256 253 247 246 244 240 238 232 231 232 203 209 212 219 224 232 243 252 258 262 257 255 264 260 258 263 273 258 268 234 231 225
225 220 219 225 225 230 239 232 239 242 247 239 250 254 250 258 254 241 248 255 253 251 252 253 246 240 234 232 235 240 233 221 220 210 217 227 226 238 251 257 265 262 255 263 263 264 265 262 272 278 267 225 220 216
200 213 218 223 220 225 234 241 239 239 242 247 240 240 247 243 248 253 257 254 252 249 244 245 240 232 228 232 222 218 222 213 217 215 220 235 243 246 256 263 263 253 250 256 257 265 248 261 266 262 284 238 218 219
210 223 218 222 222 231 234 239 239 240 247 241 244 257 252 257 257 261 270 263 252 239 237 232 229 232 227 219 220 218 212 200 214 225 226 234 243 251 258 256 251 255 256 261 261 261 241 251 258 242 261 279 232 210
224 226 241 229 213 238 232 238 233 238 240 239 241 238 243 250 260 262 271 252 243 233 227 224 216 217 223 220 206 214 224 232 224 232 237 234 247 250 249 249 239 238 236 241 233 234 230 237 258 242 249 281 222 203
235 236 235 240 245 237 239 239 243 253 251 241 230 221 225 224 246 254 251 261 274 267 243 220 214 198 205 206 213 214 211 215 225 238 240 243 246 245 241 242 238 241 241 245 247 226 218 228 238 237 240 236 218 199
253 257 249 236 232 245 250 248 240 238 237 239 241 236 245 251 265 266 273 267 259 250 228 216 213 207 205 211 211 211 208 216 216 224 226 223 224 232 232 234 228 268 271 269 244 221 210 201 225 218 217 214 219 220
267 253 255 259 249 242 251 243 249 244 247 248 251 253 249 246 250 255 256 247 239 233 228 221 215 206 201 205 205 205 205 202 197 206 218 209 196 199 230 227 242 242 242 250 242 217 208 212 222 222 222 220 224 233
268 272 263 263 261 259 261 258 253 251 253 253 250 252 255 256 251 244 242 241 233 228 224 224 223 224 222 216 212 214 218 213 213 211 193 182 196 213 202 197 214 225 233 242 208 221 216 213 217 223 227 225 235 218
264 268 273 281 281 279 273 265 262 257 256 257 260 260 262 259 255 251 244 239 238 241 239 236 235 236 235 239 237 228 218 211 214 230 223 204 201 200 210 215 216 209 227 210 197 209 218 199 206 227 230 223 218 202
322 317 296 288 302 314 321 308 295 292 273 267 265 262 257 255 260 263 251 238 239 241 239 241 241 240 235 233 230 232 235 222 217 212 218 213 213 211 209 193 185 195 236 194 193 198 203 203 208 214 224 212 198 203